KINEIS-1D

Last updated on Wed Oct 22 2025 00:02:42 GMT+0000 (Coordinated Universal Time)

1 60082U 24114D 25294.63052256 .00001404 00000+0 21213-3 0 9999 2 60082 98.0061 312.2387 0000721 166.6734 193.4494 14.75832274 71938
UTC large
Height (km)
Speed (km/s)
/
Latitude / Longitude
Inclination (degrees)
Orbital Period (minutes)
Azimuth
Elevation
Range (km)
Doppler Factor

Next 0 passes for location: London (51.5072 / 0.1276)

Sorry there are no passes over London.